This is the latest recevied weather packets stored in our database for station/object W2EH. If no packets are shown the sender has not sent any weather packets the latest 10 day(s).
| Time | Temp. | Humidity | Pressure | Rain* | Wind** | Luminosity | Snow |
|---|---|---|---|---|---|---|---|
| 1778177053 | 17.78° C | 71% | 1017.2 hPa | 0 mm | - | 104 W/m² | - |
| 1778176749 | 17.78° C | 71% | 1017.4 hPa | 0 mm | - | 121 W/m² | - |
| 1778176446 | 17.78° C | 72% | 1017.2 hPa | 0 mm | - | 217 W/m² | - |
| 1778176144 | 17.78° C | 72% | 1016.8 hPa | 0 mm | - | 186 W/m² | - |
| 1778175841 | 17.22° C | 73% | 1016.4 hPa | 0 mm | - | 315 W/m² | - |
| 1778175538 | 16.67° C | 75% | 1016.3 hPa | 0 mm | - | 222 W/m² | - |
| 1778175235 | 16.67° C | 78% | 1016.9 hPa | 0 mm | - | 162 W/m² | - |
| 1778174931 | 16.11° C | 78% | 1016.9 hPa | 0 mm | - | 156 W/m² | - |
| 1778174628 | 16.11° C | 79% | 1017.2 hPa | 0 mm | - | 118 W/m² | - |
| 1778174324 | 15.56° C | 78% | 1017.6 hPa | 0 mm | - | 114 W/m² | - |
| 1778174021 | 15.56° C | 80% | 1016.7 hPa | 0 mm | - | 125 W/m² | - |
| 1778173718 | 15.56° C | 82% | 1016.8 hPa | 0 mm | - | 106 W/m² | - |
| 1778173414 | 15° C | 82% | 1016.4 hPa | 0 mm | - | 104 W/m² | - |
| 1778173110 | 15° C | 82% | 1016.6 hPa | 0 mm | - | 78 W/m² | - |
| 1778172807 | 15° C | 82% | 1016.5 hPa | 0 mm | - | 68 W/m² | - |
| 1778172503 | 15° C | 82% | 1017.1 hPa | 0 mm | - | 61 W/m² | - |
| 1778172200 | 15° C | 81% | 1017.3 hPa | 0 mm | - | 44 W/m² | - |
| 1778171897 | 15° C | 80% | 1018 hPa | 0 mm | - | 46 W/m² | - |
| 1778171595 | 15.56° C | 80% | 1017.8 hPa | 0 mm | - | 42 W/m² | - |
| 1778171291 | 15° C | 81% | 1018.4 hPa | 0 mm | - | 49 W/m² | - |
| 1778170986 | 15° C | 79% | 1018.8 hPa | 0 mm | - | 60 W/m² | - |
| 1778170684 | 15° C | 80% | 1018.9 hPa | 0 mm | - | 59 W/m² | - |
| 1778170380 | 15° C | 81% | 1018.4 hPa | 0 mm | - | 52 W/m² | - |
| 1778170076 | 15° C | 80% | 1017.9 hPa | 0 mm | - | 45 W/m² | - |
| 1778169773 | 15° C | 81% | 1017.4 hPa | 0 mm | - | 52 W/m² | - |
* Rain latest hour (hover to see other rain measurements)
** Current wind speed in m/s (hover to see current wind gust speed)